• Bienvenue sur Pilotes Québec!
  • Bienvenue sur le site de Pilotes Québec, la nouvelle communauté des pilotes et aviateurs du Québec.
  • Le Cessna 172 de Patrick Vergobbi (C-FUFD "Le Pique-Nuage"), capté par Jean-Pierre Bonin, lors du RVA chez Mo du 28 février 2015, qui fut cette année un grand succès!  Plus de 95 aéronefs (dont trois hélicos) ont été vus sur place, sans compter plusieurs convives venus par la route.
  • Calendrier des activités
  • sujets récents au forum...
  • Les nouvelles en bref...

Connexion


J'ai oublié mon mot de passe
Renvoyer l'e-mail de confirmation
 

Publicité

Vous aimeriez afficher une publicité pour joindre la communauté des pilotes professionnels et privé du Québec?  Cliquez ici pour en savoir plus!

Conditions actuelles

Click for Quebec, Quebec Forecast

METAR - Québec


2015/04/01 04:00
CYQB 010400Z 34002KT 15SM SKC M06/M16 A2986 RMK SLP117

TAF - Québec


2015/03/31 18:42
TAF CYQB 311738Z 3118/0118 24017KT P6SM FEW030
BECMG 3122/3124 29008KT
BECMG 0113/0115 26015KT
RMK NXT FCST BY 010000Z